Tracking 17844 objects as of 24-August-2016
HD Live streaming from Space Station
objects crossing your sky now

GOES 7

Track GOES 7 now!
GOES 7 is classified as:


NORAD ID: 17561
Int'l Code: 1987-022A
Perigee: -6,371.0 km
Apogee: -6,371.0 km
Inclination: 15.1 °
Period: 0.0 minutes
Semi major axis: 0 km
RCS: 10.3409 m2 (large)
Launch date: February 26, 1987
Source: United States (US)
Launch site: AIR FORCE EASTERN TEST RANGE (AFETR)
Your satellite tracking list
Your tracking list is empty





NASA's NSSDC Master Catalog

Two Line Element Set (TLE):
1 17561U 87022A   16236.44348782  .00000078  00000-0  00000+0 0  9991
2 17561  15.1115   8.9811 0003235 250.1145  91.3166  0.99896954 91166
Source of the keplerian elements: AFSPC

N2YO: 415